Location: Blankensee
(53.5126°N, 14.3055°E)
Time: 18:55:31
(UTC+00:00)

Cosmos 1980 - Pass Details

Date: 08 August 2020
Orbit: 838 x 848 km, 71.0° (Epoch: 20 September)

Event Time Altitude Azimuth Distance (km) Brightness Sun altitude
Rises 00:23:58 0° 325° (NW) 3,415 7.4 -18.6°
Reaches altitude 10° 00:26:29 10° 321° (NW) 2,477 6.5 -18.4°
Maximum altitude 00:31:57 50° 248° (WSW) 1,066 3.9 -18.2°
Enters shadow 00:34:23 31° 190° (S) 1,458 4.4 -18.0°
